Location: Austin
(30.3000°N, 97.7500°W)
Time: 11:43:17
(UTC-05:00)

CZ-2C R/B - Pass Details

Date: 03 April 2024
Orbit: 667 x 778 km, 98.4° (Epoch: 21 April)

Event Time Altitude Azimuth Distance (km) Brightness Sun altitude
Rises 04:56:05 0° 12° (NNE) 3,232 6.3 -29.9°
Reaches altitude 10° 04:58:23 10° 13° (NNE) 2,313 5.4 -29.4°
Enters shadow 05:02:52 69° 19° (NNE) 829 2.6 -28.6°
